TimePDT,TemperatureF,Dew PointF,Humidity,Sea Level PressureIn,VisibilityMPH,Wind Direction,Wind SpeedMPH,Gust SpeedMPH,PrecipitationIn,Events,Conditions,WindDirDegrees,DateUTC
12:53 AM,41.0,28.0,60,29.98,10.0,ENE,5.8,-,N/A,,Clear,60,2012-10-08 07:53:00
1:53 AM,42.1,30.9,65,29.99,10.0,NNE,3.5,-,N/A,,Clear,30,2012-10-08 08:53:00
2:53 AM,39.9,28.9,65,29.99,10.0,Calm,Calm,-,N/A,,Clear,0,2012-10-08 09:53:00
3:53 AM,39.0,28.0,65,29.98,10.0,Calm,Calm,-,N/A,,Clear,0,2012-10-08 10:53:00
4:53 AM,37.9,30.0,73,29.98,10.0,NNE,3.5,-,N/A,,Clear,30,2012-10-08 11:53:00
5:53 AM,36.0,28.9,76,29.97,8.0,Calm,Calm,-,N/A,,Clear,0,2012-10-08 12:53:00
6:53 AM,37.0,30.0,76,29.99,8.0,Calm,Calm,-,N/A,,Clear,0,2012-10-08 13:53:00
7:53 AM,37.9,30.9,76,30.00,10.0,Calm,Calm,-,N/A,,Clear,0,2012-10-08 14:53:00
8:53 AM,44.1,30.9,60,30.00,10.0,Calm,Calm,-,N/A,,Clear,0,2012-10-08 15:53:00
9:53 AM,48.9,30.0,48,29.99,8.0,Calm,Calm,-,N/A,,Clear,0,2012-10-08 16:53:00
10:53 AM,55.0,30.0,38,29.98,10.0,Calm,Calm,-,N/A,,Clear,0,2012-10-08 17:53:00
11:53 AM,61.0,28.9,30,29.97,9.0,Calm,Calm,-,N/A,,Clear,0,2012-10-08 18:53:00
12:53 PM,64.9,27.0,24,29.94,9.0,Calm,Calm,-,N/A,,Clear,0,2012-10-08 19:53:00
1:53 PM,68.0,23.0,18,29.91,10.0,Variable,5.8,-,N/A,,Clear,0,2012-10-08 20:53:00
2:53 PM,70.0,21.9,16,29.90,10.0,WSW,9.2,-,N/A,,Clear,240,2012-10-08 21:53:00
3:53 PM,71.1,24.1,17,29.89,10.0,SW,5.8,-,N/A,,Clear,230,2012-10-08 22:53:00
4:53 PM,70.0,25.0,18,29.89,10.0,West,6.9,-,N/A,,Clear,260,2012-10-08 23:53:00
5:53 PM,64.9,27.0,24,29.90,10.0,Calm,Calm,-,N/A,,Clear,0,2012-10-09 00:53:00
6:53 PM,57.2,26.6,31,29.90,10.0,Calm,Calm,-,N/A,,Clear,0,2012-10-09 01:53:00
7:53 PM,52.0,28.0,40,29.93,10.0,Calm,Calm,-,N/A,,Clear,0,2012-10-09 02:53:00
8:53 PM,48.9,36.0,61,29.95,10.0,Calm,Calm,-,N/A,,Mostly Cloudy,0,2012-10-09 03:53:00
9:53 PM,48.9,33.1,54,29.96,10.0,Calm,Calm,-,N/A,,Clear,0,2012-10-09 04:53:00
10:53 PM,46.9,28.9,50,29.96,10.0,Calm,Calm,-,N/A,,Clear,0,2012-10-09 05:53:00
11:53 PM,45.0,32.0,60,29.97,10.0,NNE,3.5,-,N/A,,Clear,20,2012-10-09 06:53:00